Погода Усть-Цильма

Поиск расширенной информации на нашем сайте:

Полезная информация:

Новости сайта



02.01.2020
Опубликован Долгосрочный прогноз погоды по городам России и ближнего зарубежья на январь 2020 года.
Карты: Прогноз на январь и февраль 2020 года, Сравнение прогнозируемой аномалии приземной температуры воздуха на январь 2020 года по разным моделям.




Погода Усть-Цильма - сегодня

Время (UTC), дата Ветер
(°,м/с) 
Видим.   Явления Облачность Т
(°С)
Тd
(°С)
f(%) Тe
(°С)
Pmin
(гПа)
dP
(гПа)
Po
(мм)
O2
(г/м3)
Тmin Tmax R s Состояние
почвы
12 29.11.20 170 (Ю) 10 км    3/0 верхняя 
[Cs]
-11.2 -12.5 90 -14  1042.8  -0.3  774  326           
15 29.11.20 200 (Ю) 10 км    9/0 верхняя 
[Cs]
-10.1 -12.1 85 -13  1042.1  -0.7  774  325    -9.9       
18 29.11.20 190 (Ю) 10 км    10/0 верхняя 
[Cs]
-10.1 -12.1 85 -13  1041.2  -0.9  773  325           
21 29.11.20 180 (Ю) 10 км    10/10 360 м 
[Sc]
-8.4 -9.9 89 -11  1040.3  -0.9  772  322           
00 30.11.20 180 (Ю) 10 км    10/10 210 м 
[St]
-7.4 -8.3 93 -10  1039.2  -0.9  772  320           
03 30.11.20 200 (Ю) 10 км    10/10 270 м 
[St]
-6.2 -7 94 -10  1038.6  -0.6  771  319  -10.1      неравномерный
сухой снег
100% 
06 30.11.20 200 (Ю) 17000 м    10/10 270 м 
[Sc]
-7.2 -8.1 93 -11  1038  -0.6  771  320           
09 30.11.20 200 (Ю) 20000 м    10/8 330 м средняя 
[Sc|Ac und]
-6.4 -7.6 91 -9  1037.4  -0.6  770  319           
12 30.11.20 190 (Ю) 15000 м    10/8 300 м средняя 
[Sc|Ac und]
-5 -6.3 91 -7  1036.6  -0.8  770  317           
15 30.11.20 200 (Ю) 10 км    3/0 средняя 
[Ac trans]
-4.6 -5.9 91 -8  1035.6  -1  769  316    -4       
18 30.11.20 210 (ЮЗ) 10 км    10/4 300 м средняя 
[Sc|Ac und]
-3 -4 93 -6  1035.2  -0.3  769  314           
21 30.11.20 200 (Ю) 10 км    10/4 300 м средняя 
[Sc|Ac und]
-2.6 -3.6 93 -5  1033.8  -1.2  768  313           
00 01.12.20 200 (Ю) 10 км    10/3 300 м средняя 
[Sc|Ac und]
-1.8 -3.6 87 -5  1031.7  -2.1  766  311           
03 01.12.20 190 (Ю) 5{10}  10 км    8/3 300 м средняя 
[Sc|Ac trans]
-3.4 -5.2 87 -7  1030.3  -1.6  765  313  -4.5      неравномерный
сухой снег
100% 
06 01.12.20 200 (Ю) 17000 м    10/10 300 м 
[Sc]
-3.6 -5.4 87 -7  1029.7  -0.6  764  313  -3.6         
09 01.12.20 200 (Ю) 16000 м    10/10 300 м 
[Sc]
-3.2 -4.9 88 -6  1028.8  -0.9  764  312           
12 01.12.20 200 (Ю) 10 км    10/10 300 м 
[Sc]
-3 -5 86 -5  1027.8  -1  763  311           
15 01.12.20 210 (ЮЗ) 10 км    10/10 330 м 
[Sc]
-3.4 -5.9 83 -6  1026.8  -1  762  312    -2.8       
21 01.12.20 220 (ЮЗ) 4000 м  слаб. ливневой снег  10/8 300 м кучево-дожд., средняя 
[Cb cap|Ac und]
-4.4 -5.3 93 -7  1025.5  -0.5  761  312           
00 02.12.20 230 (ЮЗ) 4000 м  слаб. ливневой снег  10/6 480 м кучево-дожд., средняя 
[Cb cap|Ac und]
-3.3 -6.1 81 -6  1026  0.5  762  311           
03 02.12.20 230 (ЮЗ) 10 км  {ливн. осадки}  10/10 400 м 
[Sc]
-3.1 -5.8 82 -6  1026.2  0.2  762  311  -4.3    0.5  неравномерный
сухой снег
100% 
06 02.12.20 220 (ЮЗ) 4{10}  14000 м  {ливн. осадки}  9/9 420 м 
[Sc]
-3.5 -6.3 81 -6  1026.7  0.5  762  312  -3.5         
09 02.12.20 230 (ЮЗ) 3{11}  5000 м  слаб. ливневой снег  9/8 300 м кучево-дожд., средняя 
[Cb cap|Ac trans]
-3.4 -5.5 85 -6  1027  0.3  762  312           
12 02.12.20 230 (ЮЗ) 10 км  слаб. ливневой снег  10/10 540 м кучево-дожд. 
[Cb cap]
-3.4 -5.5 85 -6  1027.2  0.2  763  312           
15 02.12.20 230 (ЮЗ) 10 км  {ливн. осадки}  10/10 450 м 
[Sc]
-2.9 -5.6 82 -4  1028  0.8  763  311    -2.6  0.2     
Время (UTC), дата Ветер
(°,м/с) 
Видим.   Явления Облачность Т
(°С)
Тd
(°С)
f(%) Тe
(°С)
Pmin
(гПа)
dP
(гПа)
Po
(мм)
O2
(г/м3)
Тmin Tmax R s Состояние
почвы

Для получения пояснительной информации подведите курсор к названию столбца.

ПОГОДА Усть-Цильма - архив

Всё, что Вы хотите узнать о погоде Усть-Цильма - удобно и подробно!

Выберите нужную дату (начиная с 1 января 2019* года) и нажмите кнопку "Найти".
Будут отображены архивные сводки погоды по пункту Усть-Цильма, начиная с указанной даты.


Отображать данные в формате CSV (для использования в таблицах Excel)


Внимание! Наш архив погоды предназначен исключительно для личного некоммерческого использования в познавательных целях. Если Вам необходимы официальные справки о состоянии погоды (для производственных, юридических, коммерческих и т.п. целей), обращайтесь в органы Росгидромета.

*Примечание: данная дата относится к архиву по метеостанциям СССР (Россия, СНГ, Балтия).
Архив по метеостанциям Зарубежной Европы и Азии (кроме Китая) хранится 10 дней, по другим регионам земного шара (Китай, Африка, Америка, Австралия, Океания) - 1 день.

Усть-Цильма - район местоположения метеостанции


Название, широта, долгота, высота метеостанции:
Усть-Цильма 65.4°ш. 52.3°д. 68 м над ур. моря [Российская Федерация]

Дополнительная информация

В oтличие oт бoльшинства пoгoдных сайтoв мы публикуем пoдрoбную метеoинфoрмацию в детальнoм прoфессиoнальнoм фoрмате.

Характеристики температуры и влажнoсти вoздуха измеряются на высoте 2 м в тени вдали oт зданий и деревьев.
Скoрoсть ветра измеряется на высoте 10 м (на урoвне рoста челoвека скoрoсть ветра ниже в 1.5-2 раза). Если метеoстанция нахoдится в гoрoде или в лесу, тo скoрoсть ветра занижена на 2-4 м/с пo сравнению с oткрытым местoм. Скoрoсть ветра над акватoриями крупных рек и oзёр, а также на вершинах хoлмoв на 2-5 м/с выше, чем в oбычных услoвиях.
Атмoсфернoе давление в разных тoчках местнoсти мoжет значительнo oтличаться oт давления на метеoстанции, в зависимoсти oт услoвий рельефа (при пoдъёме на 10 м давление пoнижается примернo на 1 мм рт.ст.).